Weather History for Laconia, NH

Change the Weather History Date:

Wednesday, February 6, 2013

  Actual Average Record
Temperature  
Mean Temperature 25 °F -  
Max Temperature 35 °F 30 °F 61 °F (1991)
Min Temperature 15 °F 7 °F -17 °F (1988)
Degree Days  
Heating Degree Days 40    
Moisture  
Dew Point 9 °F    
Average Humidity 57    
Maximum Humidity 86    
Minimum Humidity 30    
Precipitation  
Precipitation 0.00 in - - ()
Sea Level Pressure  
Sea Level Pressure 30.00 in    
Wind  
Wind Speed 4 mph (West)    
Max Wind Speed 21 mph    
Max Gust Speed 32 mph    
Visibility 9 miles    
Events      
Averages and records for this station are not official NWS values.
T = Trace of Precipitation, MM = Missing Value Source: NWS Daily Summary

Daily Weather History Graph

Daily Weather History Graph

Search for Another Location

Airport:

Trip Planner

Search our weather history database for the weather conditions in past years. The results will help you decide how hot, cold, wet, or windy it might be!

Date:

Astronomy

Feb. 06, 2013 Rise Set
Actual Time 6:55 AM EST 5:04 PM EST
Civil Twilight 6:25 AM EST 5:34 PM EST
Nautical Twilight 5:51 AM EST 6:08 PM EST
Astronomical Twilight 5:18 AM EST 6:41 PM EST
Moon 3:40 AM EST (2/6) 1:15 PM EST (2/6)
Length of Visible Light 11h 08m
Length of Day
10h 08m
Waning Crescent, 17% of the Moon is Illuminated
Feb 6
Waning Crescent
Feb 10
New
Feb 17
First Quarter
Feb 25
Full
Mar 4
Last Quarter

Hourly Weather History & Observations

Time (EST) Temp. Windchill Dew Point Humidity Pressure Visibility Wind Dir Wind Speed Gust Speed Precip Events Conditions
12:15 AM 19.4 °F - 8.6 °F 63% 29.91 in 10.0 mi Calm Calm - N/A   Overcast
12:35 AM 19.4 °F - 8.6 °F 63% 29.91 in 10.0 mi Calm Calm - N/A   Overcast
12:55 AM 19.4 °F - 8.6 °F 63% 29.90 in 10.0 mi Calm Calm - N/A   Overcast
1:15 AM 19.4 °F - 8.6 °F 63% 29.91 in 3.0 mi Calm Calm - N/A   Overcast
1:35 AM 19.4 °F - 10.4 °F 68% 29.91 in 4.0 mi Calm Calm - N/A   Overcast
2:15 AM 19.4 °F - 12.2 °F 74% 29.91 in 7.0 mi Calm Calm - N/A   Overcast
2:35 AM 19.4 °F - 12.2 °F 74% 29.90 in 4.0 mi Calm Calm - N/A   Overcast
2:55 AM 19.4 °F - 12.2 °F 74% 29.90 in 3.0 mi Calm Calm - N/A   Overcast
3:15 AM 19.4 °F - 14.0 °F 80% 29.90 in 5.0 mi Calm Calm - N/A   Overcast
3:35 AM 19.4 °F - 12.2 °F 74% 29.90 in 3.0 mi Calm Calm - N/A   Overcast
3:55 AM 19.4 °F - 14.0 °F 80% 29.89 in 3.0 mi Calm Calm - N/A   Overcast
4:15 AM 17.6 °F - 14.0 °F 86% 29.89 in 4.0 mi Calm Calm - N/A   Overcast
4:35 AM 17.6 °F - 14.0 °F 86% 29.89 in 7.0 mi Calm Calm - N/A   Mostly Cloudy
4:55 AM 19.4 °F - 14.0 °F 80% 29.90 in 10.0 mi Calm Calm - N/A   Overcast
5:15 AM 17.6 °F - 14.0 °F 86% 29.90 in 10.0 mi Calm Calm - N/A   Mostly Cloudy
5:35 AM 19.4 °F - 14.0 °F 80% 29.91 in 10.0 mi Calm Calm - N/A   Mostly Cloudy
5:55 AM 17.6 °F - 12.2 °F 79% 29.91 in 10.0 mi Calm Calm - N/A   Overcast
6:15 AM 17.6 °F - 12.2 °F 79% 29.92 in 10.0 mi Calm Calm - N/A   Mostly Cloudy
6:35 AM 17.6 °F - 12.2 °F 79% 29.93 in 10.0 mi Calm Calm - N/A   Scattered Clouds
7:15 AM 17.6 °F - 12.2 °F 79% 29.94 in 8.0 mi Calm Calm - N/A   Mostly Cloudy
7:35 AM 17.6 °F - 12.2 °F 79% 29.94 in 10.0 mi Calm Calm - N/A   Mostly Cloudy
7:55 AM 17.6 °F - 12.2 °F 79% 29.94 in 10.0 mi Calm Calm - N/A   Overcast
8:35 AM 19.4 °F - 14.0 °F 80% 29.94 in 10.0 mi Calm Calm - N/A   Overcast
8:55 AM 19.4 °F 14.3 °F 14.0 °F 80% 29.94 in 10.0 mi WSW 3.5 mph - N/A   Overcast
9:15 AM 21.2 °F 14.9 °F 15.8 °F 80% 29.94 in 10.0 mi West 4.6 mph - N/A   Mostly Cloudy
9:35 AM 21.2 °F 14.9 °F 15.8 °F 80% 29.93 in 10.0 mi West 4.6 mph - N/A   Mostly Cloudy
10:15 AM 24.8 °F 20.5 °F 17.6 °F 74% 29.93 in 10.0 mi WNW 3.5 mph - N/A   Overcast
10:35 AM 26.6 °F 21.2 °F 19.4 °F 74% 29.93 in 10.0 mi WSW 4.6 mph - N/A   Overcast
10:55 AM 28.4 °F 19.7 °F 19.4 °F 69% 29.93 in 10.0 mi WSW 9.2 mph - N/A   Mostly Cloudy
11:35 AM 32.0 °F 23.0 °F 19.4 °F 60% 29.91 in 10.0 mi SW 11.5 mph - N/A   Clear
11:55 AM 33.8 °F 24.8 °F 19.4 °F 56% 29.90 in 10.0 mi WSW 12.7 mph - N/A   Scattered Clouds
12:15 PM 33.8 °F 23.5 °F 19.4 °F 56% 29.90 in 10.0 mi SW 16.1 mph - N/A   Mostly Cloudy
12:35 PM 33.8 °F 24.3 °F 17.6 °F 52% 29.90 in 10.0 mi WSW 13.8 mph - N/A   Overcast
12:55 PM 33.8 °F 22.2 °F 15.8 °F 48% 29.91 in 10.0 mi West 20.7 mph 27.6 mph N/A   Overcast
1:15 PM 33.8 °F 24.8 °F 14.0 °F 44% 29.92 in 10.0 mi West 12.7 mph 24.2 mph N/A   Overcast
1:35 PM 33.8 °F 22.5 °F 14.0 °F 44% 29.92 in 10.0 mi WSW 19.6 mph 26.5 mph N/A   Overcast
1:55 PM 35.6 °F 24.8 °F 12.2 °F 38% 29.92 in 10.0 mi WSW 19.6 mph 32.2 mph N/A   Overcast
2:15 PM 33.8 °F 23.9 °F 10.4 °F 38% 29.93 in 10.0 mi West 15.0 mph 25.3 mph N/A   Mostly Cloudy
2:35 PM 35.6 °F 25.2 °F 10.4 °F 35% 29.94 in 10.0 mi West 18.4 mph 31.1 mph N/A   Overcast
2:55 PM 35.6 °F 27.5 °F 15.8 °F 44% 29.95 in 10.0 mi WNW 11.5 mph 17.3 mph N/A   Overcast
3:15 PM 33.8 °F 24.3 °F 10.4 °F 38% 29.96 in 10.0 mi WNW 13.8 mph 20.7 mph N/A   Mostly Cloudy
3:35 PM 33.8 °F 24.8 °F 10.4 °F 38% 29.97 in 10.0 mi WNW 12.7 mph 16.1 mph N/A   Partly Cloudy
3:55 PM 32.0 °F 24.2 °F 12.2 °F 44% 29.98 in 10.0 mi WNW 9.2 mph 16.1 mph N/A   Partly Cloudy
4:15 PM 30.2 °F 22.6 °F 12.2 °F 47% 29.99 in 10.0 mi West 8.1 mph 17.3 mph N/A   Partly Cloudy
4:35 PM 30.2 °F 21.9 °F 12.2 °F 47% 30.01 in 10.0 mi WNW 9.2 mph - N/A   Scattered Clouds
4:55 PM 30.2 °F 20.2 °F 14.0 °F 51% 30.03 in 10.0 mi NW 12.7 mph 18.4 mph N/A   Partly Cloudy
5:15 PM 28.4 °F 19.7 °F 12.2 °F 51% 30.04 in 10.0 mi WNW 9.2 mph 19.6 mph N/A   Clear
5:35 PM 26.6 °F 16.8 °F 12.2 °F 55% 30.06 in 10.0 mi NW 10.4 mph 16.1 mph N/A   Clear
5:55 PM 26.6 °F 19.1 °F 10.4 °F 51% 30.07 in 10.0 mi West 6.9 mph - N/A   Clear
6:15 PM 26.6 °F 19.1 °F 8.6 °F 47% 30.08 in 10.0 mi West 6.9 mph 17.3 mph N/A   Clear
6:35 PM 26.6 °F 18.2 °F 8.6 °F 47% 30.10 in 10.0 mi West 8.1 mph - N/A   Clear
6:55 PM 24.8 °F 15.3 °F 8.6 °F 50% 30.12 in 10.0 mi West 9.2 mph - N/A   Clear
7:15 PM 24.8 °F 16.1 °F 6.8 °F 46% 30.13 in 10.0 mi West 8.1 mph - N/A   Clear
7:35 PM 24.8 °F 14.6 °F 6.8 °F 46% 30.14 in 10.0 mi West 10.4 mph 17.3 mph N/A   Clear
7:55 PM 23.0 °F 12.4 °F 3.2 °F 43% 30.15 in 10.0 mi West 10.4 mph 16.1 mph N/A   Clear
8:15 PM 21.2 °F 9.5 °F 3.2 °F 46% 30.17 in 10.0 mi West 11.5 mph 17.3 mph N/A   Clear
8:35 PM 21.2 °F 10.1 °F -0.4 °F 39% 30.18 in 10.0 mi West 10.4 mph 17.3 mph N/A   Clear
8:55 PM 21.2 °F 12.6 °F -0.4 °F 39% 30.19 in 10.0 mi West 6.9 mph 17.3 mph N/A   Clear
9:15 PM 19.4 °F 9.5 °F -2.2 °F 39% 30.20 in 10.0 mi West 8.1 mph 19.6 mph N/A   Clear
9:35 PM 19.4 °F 10.4 °F -5.8 °F 33% 30.21 in 10.0 mi West 6.9 mph - N/A   Clear
9:55 PM 19.4 °F 7.2 °F -7.6 °F 30% 30.22 in 10.0 mi West 11.5 mph 20.7 mph N/A   Clear
10:15 PM 17.6 °F 5.7 °F -9.4 °F 30% 30.24 in 10.0 mi WSW 10.4 mph 21.9 mph N/A   Clear
10:35 PM 17.6 °F 4.3 °F -9.4 °F 30% 30.24 in 10.0 mi WSW 12.7 mph 16.1 mph N/A   Clear
10:55 PM 17.6 °F 9.3 °F -9.4 °F 30% 30.25 in 10.0 mi WSW 5.8 mph - N/A   Clear
11:15 PM 15.8 °F 6.1 °F -9.4 °F 32% 30.26 in 10.0 mi WSW 6.9 mph 18.4 mph N/A   Clear
11:35 PM 15.8 °F 10.2 °F -9.4 °F 32% 30.27 in 10.0 mi West 3.5 mph - N/A   Clear
11:55 PM 15.8 °F 4.2 °F -9.4 °F 32% 30.27 in 10.0 mi WSW 9.2 mph - N/A   Clear